NOAA 18 (28654 NORAD) Tracking and Keplerian Element Data

This shows tracking and keplerian element data for the satellite.

Feedback or suggestion? Click here.




ElementValue
Catalog28654
NameNOAA 18
Epoch Orbit94159
Epoch Day239.16163413
Epoch Year2023
RAAN313.198
Inclination98.9058
Eccentricity0.0014491
Argument of Perigee175.0718
Mean Anonmoly185.0599
Mean Motion14.12994097
Decay Rate2.09E-06
L11 28654U 05018A 23239.16163413 .00000209 00000+0 13573-3 0 9995
L22 28654 98.9058 313.1980 0014491 175.0718 185.0599 14.12994097941590



Live tracking and technical data element details for NOAA 18 (NORAD 28654). NOAA 18 can be tracked NOW for your location showing map with azimuth and elevation plus other details from your city location.







IsCatalogInMostPopularTable: catalog: 28654, numindb: 935
Update: records affected: 1



GetName: 28654 NOAA 18

Hit Count: updated at: Tue, 26 Sep 2023 11:53:37 GMT